COSMOS 2251 DEB, 47051

Orbit data source: Space-Track

COSMOS 2251 DEB, 47051 is space debris in LEO originally from a launch on Wed, 16 Jun 1993 UTC launched from the Plesetsk Missile And Space Complex (PKMTR). The debris from Iridium 33, an American commercial communications satellite, has been tracked extensively since its accidental collision with the defunct Russian satellite Cosmos 2251 in 2009. This event, occurring at high speed in low Earth orbit (LEO), generated thousands of pieces of space debris, significantly increasing the risk of further collisions. The Iridium 33 debris cloud has impacted space traffic management and orbital debris mitigation strategies, making it a subject of ongoing study in space situational awareness.

Loading next visibility...
Identifier
47051, 1993-036BXF
Orbit
LEO
Country
Flag of CISCIS
Related business
Manufacturer
Unknown
Mission
Spacecraft
Bus & Motor
Unknown
Mass
Unknown
Launch date (UTC)
1993-06-16 (33 years ago)
Launch vehicle
Unknown
Launch site
Plesetsk Missile And Space Complex (PKMTR)
Object type
Payload
Rocket body
Debris
Shape & HBR
Unknown shape, 0.1 m
Radar Cross Section
Small (<0.1 m²)

Expand to show TLE details & history
Last TLE update: 1 week ago

TLE from 1 week ago
0 COSMOS 2251 DEB
1 47051U 93036BXF 25347.28881792  .00002391  00000-0  19326-2 0  9992
2 47051  74.1001 182.6908 0340103 296.1774 246.9893 13.67117141599458
Epoch: 2025-12-13T06:55Z
TLE epoch observation values (Epoch: 2025-12-13T06:55:53.868Z)
Latitude
0.24036°
Longitude
176.43°
Altitude
1,117.771 km
Speed
7.242 km/s
True Right ascension
00h 10m 29s
True Declination
0° 14' 20"
Sunlit
Object was in daylight at epoch
Visualization orbit readout
Latitude
Unknown
Longitude
Unknown
Altitude
Unknown
Speed
Unknown
Apparent Right ascension
Unknown
Apparent Declination
Unknown
Sunlit
N/A
Visualization observer readout
Local Sidereal Time
05:13:41
Azimuth
Unknown
Elevation
Unknown
Doppler factor
Unknown
Orbital elements
Apogee altitude
1,258.823 km
Perigee altitude
756.438 km
Semi-major axis
7,385.768 km
Eccentricity
0.03401
Inclination
74.1001°
RAAN
182.6908°
Arg. of periapsis
296.1774°
True anomaly
243.46301°
Mean anomaly
246.9893°
Eccentric anomaly
245.22008°
Mean motion
3.4194 °/min
Orbital period
105.28 mins
BSTAR
0.0019326
Loading maneuver chart data...
Computing Atmospheric mass density...

Documentation

Showing up to 5 results
|